Regional Weather Roundup
Issued by NWS

Home | Current Version | Previous Version | Text Only | Print | Product List | Glossary On
Versions: 1 2 3 4 5 6 7 8 9 10 11 12 13 14 15 16 17 18 19 20 21 22 23 24 25 26 27 28 29 30 31 32 33 34 35 36 37 38 39 40 41 42 43 44 45 46 47 48 49 50
000
ASUS44 KMEG 062110
RWRTN
TENNESSEE HOURLY STATE WEATHER ROUNDUP
NATIONAL WEATHER SERVICE MEMPHIS TN
300 PM CST SAT FEB 06 2016

TNZ002-004-019-021-049-052-054-088>092-062200-
WEST TENNESSEE

CITY           SKY/WX    TMP DP  RH WIND       PRES   REMARKS
MEMPHIS INTL   PTSUNNY   54  19  25 VRB5      30.30F
NWS MEMPHIS      N/A     52 N/A N/A MISG        N/A
JACKSON        SUNNY     53  20  27 VRB3      30.30F
DYERSBURG      SUNNY     52  18  25 NW6       30.32S
UNION CITY     SUNNY     54  23  30 SW5       30.29S
PARIS          SUNNY     50  21  32 W6        30.30S
LEXINGTON      SUNNY     50  16  25 SW5       30.29S
$$

TNZ008-025-027-028-033-062-065-066-062200-
NORTH MIDDLE TENNESSEE

CITY           SKY/WX    TMP DP  RH WIND       PRES   REMARKS
NASHVILLE      CLOUDY    51  16  24 CALM      30.30F
CLARKSVILLE    SUNNY     53  20  27 W5        30.28F
SMYRNA         MOSUNNY   51  20  29 CALM      30.31F
COOKEVILLE     SUNNY     46  19  34 CALM      30.28F
CROSSVILLE     PTSUNNY   44  17  33 NE3       30.27S
$$

TNZ061-075-076-078-094-096-097-062200-
SOUTH MIDDLE TENNESSEE

CITY           SKY/WX    TMP DP  RH WIND       PRES   REMARKS
FAYETTEVILLE   MOSUNNY   46  18  31 CALM      30.29F
TULLAHOMA      SUNNY     45  12  26 CALM      30.30S
WINCHESTER     SUNNY     45  19  36 SE3       30.30F
MCMINNVILLE    SUNNY     46  18  31 E3        30.30S
COLUMBIA       SUNNY     50  21  32 CALM      30.28S
SHELBYVILLE    SUNNY     50  21  32 CALM      30.31S
$$

TNZ017-018-042-046-047-062200-
NORTHEAST TENNESSEE

CITY           SKY/WX    TMP DP  RH WIND       PRES   REMARKS
TRI CITIES     CLOUDY    43  15  32 SW3       30.28F
$$

TNZ012-013-036-069-073-074-062200-
CENTRAL EAST TENNESSEE

CITY           SKY/WX    TMP DP  RH WIND       PRES   REMARKS
KNOXVILLE      PTSUNNY   46  17  31 N8        30.29F
OAK RIDGE      CLOUDY    47  19  33 E3        30.31F
GATLINBURG       N/A     46  12  25 VRB6      30.29F
MORRISTOWN     CLEAR     45  16  31 CALM      30.28F
$$

TNZ083-085-099-062200-
SOUTHEAST TENNESSEE

CITY           SKY/WX    TMP DP  RH WIND       PRES   REMARKS
CHATTANOOGA    PTSUNNY   50  14  23 N10       30.30F
$$

SKY/WX REPORTED AS FAIR MEANS FEW OR NO CLOUDS BELOW
12 THOUSAND FEET.




USA.gov is the U.S. government's official web portal to all federal, state and local government web resources and services.